Regional Weather Roundup
Issued by NWS

Home | Current Version | Previous Version | Text Only | Print | Product List | Glossary On
Versions: 1 2 3 4 5 6 7 8 9 10 11 12 13 14 15 16 17 18 19 20 21 22 23 24 25 26 27 28 29 30 31 32 33 34 35 36 37 38 39 40 41 42 43 44 45 46 47
000
ASUS42 KKEY 292110
RWRKEY

FLORIDA REGIONAL WEATHER ROUNDUP FOR THE FLORIDA KEYS
NATIONAL WEATHER SERVICE KEY WEST FLORIDA
500 PM EDT SAT AUG 29 2015

...SOUTH FLORIDA AND THE KEYS...

CITY           SKY/WX    TMP DP  RH WIND       PRES   REMARKS
FORT MYERS     FAIR      78  74  87 NE3       29.97F
SW REGIONAL AP FAIR      80  70  71 N6        29.97F
NAPLES         FAIR      84  75  74 NE7       29.96F HX  92
MIAMI          PTSUNNY   90  77  65 E16       29.96F HX 103
WEST KENDALL   PTSUNNY   88  77  69 E17G23    29.95F HX 100
HOMESTEAD      FAIR      85  77  79 E12       29.95S HX  95
MARATHON       PTSUNNY   89  79  72 E14       29.92F HX 104
BOCA CHICA NAS MOSUNNY   90  78  68 E15       29.92F HX 104
KEY WEST INTL  MOSUNNY   90  78  68 E13       29.92F HX 104

...INTERNATIONAL WEATHER...

CITY           SKY/WX    TMP DP  RH WIND       PRES   REMARKS
NASSAU BAHAMAS PTSUNNY   88  79  74 SE18      29.98S HX 102
CANCUN MEXICO  MOSUNNY   90  79  70 E9        29.90F HX 105
COZUMEL MEXICO MOSUNNY   86  79  79 NE10      29.90F HX  99

ADJACENT COASTAL WATERS...

STATION/POSITION TIME  SKY/WX   TEMP    WIND        PRES    WAVE
                                AIR SEA DIR/SP/G            HT/PER
                 (UTC)          (F)     (DEG/KT/KT) (MB)    (FT/S)
PULASKI SHOAL LI 2000            83     140/ 18/ 19 1014.2F
SAND KEY         2050            87      90/ 13     1013.1F
SOMBRERO KEY     NOT AVBL
LONG KEY         2100            86 88  100/ 14/ 16 1014.0F
MOLASSES REEF    2100            86 88  100/ 15/ 18 1013.3F
FOWEY ROCKS      NOT AVBL

$$



USA.gov is the U.S. government's official web portal to all federal, state and local government web resources and services.